Regional Weather Roundup
Issued by NWS Grand Forks, ND

Home | Current Version | Previous Version | Graphics & Text | Print | Product List | Glossary On
Versions: 1 2 3 4 5 6 7 8 9 10 11 12 13 14 15 16 17 18 19 20 21 22 23 24 25 26 27 28 29 30 31 32 33 34 35 36 37 38 39 40 41 42 43 44 45 46 47 48 49 50
000
ASUS43 KFGF 280631
RWRFGF
PRAIRIE TO PINES  WEATHER ROUNDUP
NATIONAL WEATHER SERVICE EASTERN NORTH DAKOTA/GRAND FORKS ND
100 AM CDT WED SEP 28 2016

 **SATELLITE DATA USED TO AUGMENT SKY COVER AT AUTOMATED STATIONS**
 *****  WEATHER ACROSS EASTERN NORTH DAKOTA  *****

CITY           SKY/WX    TMP DP  RH WIND       PRES   REMARKS
GRAND FORKS    CLOUDY    51  42  71 N5        30.07R
6HR MIN TEMP:  49; 6HR MAX TEMP:  56;

GRAND FRKS AFB CLOUDY    50  43  78 NE3       30.08R
GRAND FRKS NWS   N/A     46 N/A N/A VRB2        N/A
DEVILS LAKE    CLOUDY    43  41  93 E3        30.09R
6HR MIN TEMP:  41; 6HR MAX TEMP:  59;

FARGO          CLOUDY    45  39  79 N6        30.05R
WAHPETON ARPT  CLOUDY    45  39  81 N6        30.05R
$$

 ***** WEATHER ACROSS CENTRAL AND WESTERN NORTH DAKOTA  *****

CITY           SKY/WX    TMP DP  RH WIND       PRES   REMARKS
BISMARCK       CLEAR     42  40  92 CALM      30.06R
6HR MIN TEMP:  42; 6HR MAX TEMP:  70;

MINOT          CLEAR     49  40  71 E6        30.05R
6HR MIN TEMP:  46; 6HR MAX TEMP:  65;

JAMESTOWN      CLOUDY    40  39  97 N3        30.06R
6HR MIN TEMP:  40; 6HR MAX TEMP:  60;

MINOT AFB      CLEAR     44  40  85 SE6       30.04R
GARRISON         N/A     45  42  89 CALM      30.05R
WILLISTON      CLEAR     51  47  86 CALM      30.01R
6HR MIN TEMP:  51; 6HR MAX TEMP:  78;

DICKINSON      CLEAR     51  44  77 S10       30.04R
6HR MIN TEMP:  50; 6HR MAX TEMP:  73;

HETTINGER      CLEAR     48  44  86 CALM      30.08R
6HR MIN TEMP:  46; 6HR MAX TEMP:  75;

$$

 *****  OTHER AIRPORT OBSERVATIONS IN OUR AREA  *****

CITY           SKY/WX    TMP DP  RH WIND       PRES   REMARKS
WALHALLA       FAIR      48  46  93 NE3       30.10R
GRAFTON AIRPOR MOCLDY    48  46  93 N5        30.11R
VALLEY CITY AR CLOUDY    46  46 100 N5        30.09R
CANDO          FAIR      37  37 100 NW5       30.12R
CAVALIER APRT  CLOUDY    48  45  87 E3        30.10R
GWINNER        CLOUDY    46  45  93 N7        30.06R
SHEYENNE NWR     N/A     50  44  81 E7        29.95S
ROLLA          FAIR      36  36 100 CALM      30.10R
 ***** THE ABOVE OBSERVATIONS ARE NON NWS ARE NOT QUALITY
       CONTROLLED AND MAY MIS-REPORT RAIN FOR SNOW...
$$

  *****  WEATHER ACROSS NORTHERN MINNESOTA  *****

CITY           SKY/WX    TMP DP  RH WIND       PRES   REMARKS
FLAG ISLAND    MOCLDY    50  46  87 NE12      30.05R
WARROAD        MOCLDY    46  43  87 N7        30.06R
ROSEAU         CLOUDY    43  37  81 NW5       30.07R
HALLOCK        CLEAR     43  41  93 NW5       30.09R
THF RVR FALLS    N/A     46  41  82 N8        30.07R
6HR MIN TEMP:  46; 6HR MAX TEMP:  50;

BAUDETTE       CLOUDY    49  46  90 N6        30.04R
6HR MIN TEMP:  48; 6HR MAX TEMP:  50;

WASKISH        CLOUDY    46  45  93 NE3       30.04R
CROOKSTON      CLOUDY    45  41  87 N3        30.07S
STEPHEN NDAWN    N/A     43  43 100 NW3         N/A
GREENBUSH NDAW   N/A     43  39  87 NW2         N/A
$$
  *****  WEATHER ACROSS CENTRAL AND WEST MINNESOTA  *****

CITY           SKY/WX    TMP DP  RH WIND       PRES   REMARKS
FOSSTON        CLOUDY    36  36 100 N6        30.05R
BEMIDJI        CLEAR     39  39 100 N5        30.02R
PARK RAPIDS    CLOUDY    47  42  83 N9        30.01R
6HR MIN TEMP:  46; 6HR MAX TEMP:  49;

ELBOW LAKE     FAIR      43  41  91 N3        30.03R
WADENA         CLEAR     39  39 100 NW5       30.00R
DETROIT LAKES  CLOUDY    46  43  87 N8        30.04R
MOORHEAD       CLEAR     45  39  81 N3        30.06R
FERGUS FALLS   CLEAR     45  39  81 N5        30.06R
MORRIS MN      CLOUDY    45  43  93 N6        30.01R
STAPLES        CLOUDY    45  43  93 N9        29.99R
$$
  *****  WEATHER ELSEWHERE ACROSS MINNESOTA  *****

CITY           SKY/WX    TMP DP  RH WIND       PRES   REMARKS
DULUTH         CLOUDY    51  48  89 N12       29.90R
6HR MIN TEMP:  48; 6HR MAX TEMP:  51; 6HR PCP: TRACE;

INTRNTL FALLS  CLOUDY    51  48  89 N7        30.01R
6HR MIN TEMP:  50; 6HR MAX TEMP:  51;

ELY            CLOUDY    50  48  93 CALM      29.95R
CLOQUET        PTCLDY    48  45  87 N8        29.92R
WHEATON        CLOUDY    52  45  76 N7        30.05R
BRAINERD       CLOUDY    48  45  89 N10       29.98R
6HR MIN TEMP:  46; 6HR MAX TEMP:  48; 6HR PCP: TRACE;

HIBBING        CLOUDY    49  46  90 N6        29.95R
6HR MIN TEMP:  47; 6HR MAX TEMP:  49;

ALEXANDRIA     PTCLDY    46  43  89 N12       30.00R
6HR MIN TEMP:  46; 6HR MAX TEMP:  53; 6HR PCP: TRACE;

SAINT CLOUD    CLOUDY    47  45  93 NW8       29.95R
6HR MIN TEMP:  45; 6HR MAX TEMP:  49;

MINNEAPOLIS    CLOUDY    50  45  83 N12       29.92R
6HR MIN TEMP:  50; 6HR MAX TEMP:  50; 6HR PCP: TRACE;

$$

  *****  WEATHER ACROSS SOUTH DAKOTA  *****

CITY           SKY/WX    TMP DP  RH WIND       PRES   REMARKS
SIOUX FALLS    CLEAR     48  38  68 N8        29.98R
6HR MIN TEMP:  48; 6HR MAX TEMP:  67;

BROOKINGS      CLEAR     44  40  85 N7        29.99R
WATERTOWN      CLEAR     43  40  89 N6        30.01R
6HR MIN TEMP:  42; 6HR MAX TEMP:  60;

HURON          CLOUDY    47  35  63 NE6       30.01R
6HR MIN TEMP:  42; 6HR MAX TEMP:  69;

SISSETON         N/A     49  44  83 N6        30.02R
ABERDEEN       CLOUDY    42  36  79 N6        30.04R
6HR MIN TEMP:  42; 6HR MAX TEMP:  66;

MITCHELL       CLEAR     49  37  63 NW5       30.00R
PIERRE         CLEAR     51  41  68 CALM      30.02R
6HR MIN TEMP:  51; 6HR MAX TEMP:  74;

MOBRIDGE       CLEAR     46  38  73 NE5       30.03R
RAPID CITY     CLEAR     55  41  59 NW10      30.10R
6HR MIN TEMP:  54; 6HR MAX TEMP:  78;

$$

  *****  SOME WEATHER IN NEARBY STATES *****

CITY           SKY/WX    TMP DP  RH WIND       PRES   REMARKS
GLASGOW MT     CLEAR     60  46  59 NW10G21   30.08R
6HR MIN TEMP:  60; 6HR MAX TEMP:  83;

GREAT FALLS MT CLEAR     48  39  71 NW6       30.28R
6HR MIN TEMP:  48; 6HR MAX TEMP:  80;

CHEYENNE WY    CLEAR     51  29  42 NW7       30.28R
6HR MIN TEMP:  49; 6HR MAX TEMP:  76;

SCOTTSBLUFF NE CLEAR     53  42  66 N3        30.15R
6HR MIN TEMP:  50; 6HR MAX TEMP:  80;

OMAHA NE       CLEAR     52  48  86 N6        29.91R
6HR MIN TEMP:  52; 6HR MAX TEMP:  72;

DES MOINES IA  PTCLDY    61  40  45 N8        29.86R
6HR MIN TEMP:  61; 6HR MAX TEMP:  69;

DAVENPORT IA   CLOUDY    54  46  74 NE12      29.82R
6HR MIN TEMP:  54; 6HR MAX TEMP:  65;

CHICAGO IL     CLOUDY    54  45  71 N7        29.79R
6HR MIN TEMP:  54; 6HR MAX TEMP:  65;

EAU CLAIRE WI  CLOUDY    49  47  93 NW5       29.85R
6HR MIN TEMP:  48; 6HR MAX TEMP:  49; 6HR PCP:  0.01;

LA CROSSE WI   CLOUDY    52  47  83 N10       29.84R
6HR MIN TEMP:  51; 6HR MAX TEMP:  53; 6HR PCP:  0.06;

$$

  *****  SOME NATIONAL WEATHER *****

CITY           SKY/WX    TMP DP  RH WIND       PRES   REMARKS
LA GUARDIA NY  PTCLDY    68  64  87 NE5       29.99R
6HR MIN TEMP:  68; 6HR MAX TEMP:  70;

RALEIGH NC     CLOUDY    70  68  93 S5        29.91S
6HR MIN TEMP:  70; 6HR MAX TEMP:  74; 6HR PCP: TRACE;

ATLANTA GA     PTCLDY    71  69  93 CALM      29.92S
6HR MIN TEMP:  70; 6HR MAX TEMP:  74; 6HR PCP:  0.01;

NEW ORLEANS LA CLOUDY    80  74  81 NW5       29.95S
6HR MIN TEMP:  80; 6HR MAX TEMP:  87; 6HR PCP: TRACE;

OKLAHOMA CITY  CLEAR     59  50  72 S5        30.01S
6HR MIN TEMP:  58; 6HR MAX TEMP:  74;

ALBUQUERQUE NM CLEAR     62  40  44 SE7       30.23R
6HR MIN TEMP:  61; 6HR MAX TEMP:  77;

SALT LAKE CITY CLEAR     61  51  70 CALM      30.14S
6HR MIN TEMP:  61; 6HR MAX TEMP:  75;

LOS ANGELES CA PTCLDY    80  46  30 CALM      29.88S
6HR MIN TEMP:  79; 6HR MC1F1C2F2C3F3C4F4C5F5C6F6C7F7C8F8C9F9CaFaCbFbCcFcCd!


USA.gov is the U.S. government's official web portal to all federal, state and local government web resources and services.